[Iaude] MPEC A99: 2024 AG2 [a=2.50,e=0.60,i=8.9,H=23.8]
    mpec at marsden.cfa.harvard.edu 
    mpec at marsden.cfa.harvard.edu
       
    Tue Jan  9 15:33:56 EST 2024
    
    
  
M.P.E.C. 2024-A99                               Issued 2024 January 9, 20:32 UT
     The Minor Planet Electronic Circulars contain information on unusual
         minor planets, routine data on comets and natural satellites,
         and occasional editorial announcements.  They are published
    on behalf of Division F of the International Astronomical Union by the
          Minor Planet Center, Smithsonian Astrophysical Observatory,
                          Cambridge, MA 02138, U.S.A.
			  
             Prepared using the Tamkin Foundation Computer Network
                              MPC at CFA.HARVARD.EDU
            URL https://www.minorplanetcenter.net/    ISSN 1523-6714
                                    2024 AG2                                    
Observations:
     K24A02G  C2024 01 04.23750902 19 42.028-01 23 45.65         20.43GVEA099F52
     K24A02G  C2024 01 04.24920302 19 48.011-01 21 43.90         20.06GVEA099F52
     K24A02G  C2024 01 04.26093202 19 54.020-01 19 41.70         21.17GVEA099F52
     K24A02G  C2024 01 04.27266002 20 00.037-01 17 39.38         21.22GVEA099F52
     K24A02G*1C2024 01 09.21136703 17 12.772+15 46 52.28         20.19GVEA099703
     K24A02G 1C2024 01 09.21342703 17 14.636+15 47 20.26         19.68GVEA099703
     K24A02G 1C2024 01 09.21548403 17 16.206+15 47 49.31         19.55GVEA099703
     K24A02G 1C2024 01 09.21754303 17 17.876+15 48 16.88         18.79GVEA099703
     K24A02G 1C2024 01 09.29824603 18 23.660+16 06 55.80         19.48GVEA099703
     K24A02G 1C2024 01 09.30015203 18 25.160+16 07 21.00               VEA099703
     K24A02G 1C2024 01 09.30243303 18 27.040+16 07 53.40         19.99GVEA099703
     K24A02G KB2024 01 09.69037 03 24 13.05 +17 38 22.5          19.7 GXEA099M45
     K24A02G KB2024 01 09.69334 03 24 15.53 +17 39 04.1          19.6 GXEA099M45
     K24A02G KB2024 01 09.69631 03 24 18.01 +17 39 47.4                XEA099M45
     K24A02G KB2024 01 09.74580 03 25 01.219+17 51 11.27         19.4 GXEA099L38
     K24A02G KB2024 01 09.75150 03 25 06.094+17 52 31.87         19.9 GXEA099L38
     K24A02G KB2024 01 09.75532 03 25 09.314+17 53 25.66         18.5 GXEA099L38
     K24A02G KB2024 01 09.76042 03 25 13.608+17 54 38.20         19.0 GXEA099L38
     K24A02G KB2024 01 09.76250903 25 15.653+17 55 09.38         18.9 GXEA099B72
     K24A02G KC2024 01 09.76713303 25 19.09 +17 56 26.6          19.7 GVEA099L01
     K24A02G KC2024 01 09.76861103 25 20.35 +17 56 47.7          20.0 GVEA099L01
     K24A02G KB2024 01 09.76948803 25 21.552+17 56 49.15         19.3 GXEA099B72
     K24A02G KC2024 01 09.77009203 25 21.58 +17 57 07.7          19.9 GVEA099L01
     K24A02G KC2024 01 09.77086 03 25 22.61 +17 57 21.6          19.7 GVEA099104
     K24A02G KC2024 01 09.77156903 25 22.87 +17 57 29.0          19.9 GVEA099L01
     K24A02G KC2024 01 09.77304603 25 24.14 +17 57 50.2          20.1 GVEA099L01
     K24A02G KC2024 01 09.79365 03 25 41.83 +18 02 43.9          19.5 GVEA099104
     K24A02G KC2024 01 09.83149 03 26 12.44 +18 11 29.4          19.8 VqEA099L04
     K24A02G KC2024 01 09.84036 03 26 19.95 +18 13 33.8          19.6 VqEA099L04
Observer details:
104 San Marcello Pistoiese.  Observers P. Bacci, M. Maestripieri.  Measurer P.
    Bacci.  0.60-m f/4.0 reflector + CCD.
703 Catalina Sky Survey.  Observer G. J. Leonard.  Measurers E. C. Beshore, D.
    Fay, J. B. Fazekas, D. C. Fuls, A. R. Gibbs, A. D. Grauer, H. Groeller, J.
    K. Hogan, R. A. Kowalski, S. M. Larson, G. J. Leonard, D. Rankin, R. L.
    Seaman, F. C. Shelly, K. W. Wierzchos.  0.68-m Schmidt + 10K CCD.
B72 Soerth.  Observer B. Koch.  0.36-m f/7.6 reflector + CMO.
F52 Pan-STARRS 2, Haleakala.  Observers J. Herman, T. Lowe, P. Minguez, A.
    Schultz, I. Smith.  Measurers K. Chambers, T. de Boer, J. Fairlamb, H.
    Gao, M. Huber, C.-C. Lin, E. Magnier, Y. Ramanjooloo, R. Wainscoat, R.
    Weryk.  1.8-m Ritchey-Chretien + CCD.
L01 Visnjan Observatory, Tican.  Observers K. Korlevic, L. Poropat.  Measurer
    K. Korlevic.  1.0-m f/2.9 reflector + CCD.
L04 ROASTERR-1 Observatory, Cluj-Napoca.  Observer L. Hudin.  0.3-m f/5
    reflector + CCD.
L38 Gartensternwarte Schafsweide, Sehlde.  Observer A. Opitz.  0.35-m f/5.2
    Newton + CMO.
M45 Starhopper Observatory, Sfantu Gheorghe.  Observer F. Ursache.  0.41-m
    f/7.5 reflector + CMO.
Orbital elements:
2024 AG2                                                 Earth MOID = 0.0314 AU
Epoch 2023 Sept. 13.0 TT = JDT 2460200.5                Bell                    
M 334.13730              (2000.0)            P               Q                  
n   0.24909281     Peri.  341.35415     +0.04255275     -0.98799263             
a   2.5016618      Node   105.99535     +0.93517958     -0.01292958             
e   0.5993812      Incl.    8.88823     +0.35160832     +0.15395907             
P   3.96           H   23.87          G   0.15           U   8                  
Residuals in seconds of arc
240104 F52  0.0   0.1-    240109 703  0.1+  0.1-    240109 L01  0.0   0.1-
240104 F52  0.0   0.0     240109 M45  0.1+  0.2+    240109 B72  0.3-  0.7+
240104 F52  0.0   0.1+    240109 M45  0.2-  0.3-    240109 L01  0.2-  1.0-
240104 F52  0.0   0.1+    240109 M45  0.6-  1.0+    240109 104  0.1-  0.2-
240109 703  2.7-  0.9+    240109 L38  0.5+  0.2+    240109 L01  0.4+  0.6-
240109 703  0.3+  0.3+    240109 L38  0.8+  0.1+    240109 L01  0.7+  0.3-
240109 703  0.9-  0.7+    240109 L38  0.5+  0.1-    240109 104  0.2-  0.3+
240109 703  0.6-  0.3-    240109 L38  0.0   0.4+    240109 L04  0.2+  0.1+
240109 703  1.2+  0.2+    240109 B72  0.1+  0.4-    240109 L04  0.3-  0.2+
240109 703  0.2+  1.0-    240109 L01  0.2-  0.4-
Ephemeris:
2024 AG2                 a,e,i = 2.50, 0.60, 9                   q = 1.0022
Date    TT    R. A. (2000) Decl.     Delta      r    Elong.  Phase     V
2023 12 10    00 36 55.1 -30 14 26   0.1883  1.0240    96.7    72.8    22.8
...
2023 12 25    01 15 44.3 -20 24 26   0.1181  1.0023    95.8    77.5    21.9
...
2024 01 02    02 00 49.2 -07 14 17   0.08371 1.0068   103.9    71.4    21.0
...
2024 01 08    03 00 56.5 +11 10 04   0.06668 1.0174   119.0    57.7    20.1
2024 01 09    03 14 17.8 +14 58 15   0.06525 1.0198   122.3    54.6    20.0
2024 01 10    03 28 44.7 +18 51 58   0.06434 1.0223   125.7    51.4    19.9
...
2024 01 16    05 15 13.4 +39 17 47   0.07050 1.0407   142.8    34.9    19.6
...
2024 01 24    07 32 10.0 +48 36 47   0.1023  1.0734   149.2    28.0    20.3
...
2024 02 08    09 20 14.7 +45 54 41   0.1917  1.1555   149.4    25.8    21.8
M. P. C. Staff               (C) Copyright 2024 MPC           M.P.E.C. 2024-A99
    
    
More information about the Iaude
mailing list